Date String (YYYY-MM-DD hh:mm:ss) UTC,Instrument flags,absolute air pressure of the measurement (hPa),sample flow rate (lpm),inlet stack bypass flow (lpm),air temperature of the measurement (°C),ambient temperature measured by the external sensor (°C),aerosol sample conditioner tube jacket temperature (°C),OPC LED temperature (°C),internal box temperature (°C),relative humidity of the measurement (%),span deviation,mass concentration of particles derived from Lorenz-Mie calculation of OPC scattering (μg/m³),mass concentration of particles derived from Lorenz-Mie calculation of OPC scattering (μg/m³),mass concentration of particles derived from Lorenz-Mie calculation of OPC scattering (μg/m³)
DateTimeUTC,F1_M11,P_M11,Q1_M11,Q2_M11,T1_M11,T2_M11,T3_M11,T4_M11,T5_M11,U1_M11,ZSPAN_M11,X0_M11,X2_M11,X1_M11
2023-09-10 15:00:00,SystemResetWarning,0837.0,5.00,000.00,028.8,027.4,000.0,037.2,030.3,34.8,-000.9,0035.77,0018.95,0016.04
2023-09-10 15:01:00,SystemResetWarning,0837.0,5.00,000.00,028.8,027.5,000.0,037.2,030.4,34.7,-000.8,0036.00,0018.99,0016.08
2023-09-10 15:02:00,SystemResetWarning,0836.9,5.00,000.00,028.8,027.6,000.0,037.2,030.4,34.6,-000.9,0036.86,0019.13,0016.16
2023-09-10 15:03:00,SystemResetWarning,0837.0,5.00,000.00,028.8,027.7,000.0,037.2,030.5,34.7,-001.0,0036.44,0019.16,0016.20
2023-09-10 15:04:00,SystemResetWarning,0837.0,5.00,000.00,028.9,027.7,000.0,037.2,030.5,34.7,-001.0,0037.13,0019.22,0016.25
2023-09-10 15:05:00,SystemResetWarning,0836.9,5.00,000.00,028.9,027.8,000.0,037.2,030.5,34.5,-001.0,0037.27,0019.37,0016.34
2023-09-10 15:06:00,SystemResetWarning,0836.8,5.00,000.00,028.9,027.8,000.0,037.2,030.6,34.4,-001.0,0037.50,0019.43,0016.39
2023-09-10 15:07:00,SystemResetWarning,0836.8,5.00,000.00,029.0,027.8,000.0,037.3,030.6,34.4,-001.0,0037.87,0019.47,0016.43
2023-09-10 15:08:00,SystemResetWarning,0836.8,4.99,000.00,029.0,027.9,000.0,037.3,030.7,34.3,-001.0,0037.04,0019.49,0016.45
2023-09-10 15:09:00,SystemResetWarning,0836.8,4.99,000.00,029.0,027.9,000.0,037.3,030.7,34.3,-001.0,0036.85,0019.56,0016.50
2023-09-10 15:10:00,SystemResetWarning,0836.8,5.00,000.00,029.0,027.9,000.0,037.3,030.7,34.4,-001.0,0036.20,0019.46,0016.55
2023-09-10 15:11:00,SystemResetWarning,0836.9,5.00,000.00,029.1,027.6,000.0,037.3,030.7,34.5,-001.0,0037.52,0019.42,0016.57
2023-09-10 15:12:00,SystemResetWarning,0836.9,5.01,000.00,029.0,025.7,000.0,037.2,030.3,34.6,-001.0,0038.44,0019.42,0016.55
2023-09-10 15:13:00,SystemResetWarning,0836.9,5.01,000.00,028.9,024.3,000.0,037.1,030.0,34.9,-001.1,0040.05,0019.34,0016.50
2023-09-10 15:14:00,SystemResetWarning,0836.8,4.99,000.00,028.8,023.9,000.0,037.0,029.9,35.0,-001.1,0040.42,0019.37,0016.50
2023-09-10 15:15:00,SystemResetWarning,0836.8,5.03,000.00,028.7,024.2,000.0,037.0,029.8,35.2,-001.0,0040.38,0019.46,0016.54
2023-09-10 15:16:00,SystemResetWarning,0836.8,4.99,000.00,028.9,024.6,000.0,037.0,029.8,34.7,-001.0,0040.26,0019.46,0016.54
2023-09-10 15:17:00,SystemResetWarning,0836.8,4.99,000.00,029.0,025.1,000.0,037.0,029.9,34.4,-001.1,0040.09,0019.48,0016.56
2023-09-10 15:18:00,SystemResetWarning,0836.8,5.02,000.00,029.1,025.5,000.0,037.0,029.9,34.2,-001.1,0039.39,0019.50,0016.57
2023-09-10 15:19:00,SystemResetWarning,0836.8,4.99,000.00,029.1,025.9,000.0,037.1,030.0,34.3,-001.2,0039.37,0019.45,0016.57
2023-09-10 15:20:00,SystemResetWarning,0836.9,4.99,000.00,029.1,026.2,000.0,037.1,030.0,34.3,-001.3,0039.81,0019.38,0016.54
2023-09-10 15:21:00,SystemResetWarning,0836.9,4.99,000.00,029.2,026.5,000.0,037.2,030.1,34.2,-001.3,0040.09,0019.30,0016.47
2023-09-10 15:22:00,SystemResetWarning,0837.0,5.00,000.00,029.2,026.7,000.0,037.2,030.1,34.2,-001.3,0039.21,0019.29,0016.43
2023-09-10 15:23:00,SystemResetWarning,0836.9,5.00,000.00,029.2,026.9,000.0,037.2,030.2,34.3,-001.3,0037.99,0019.22,0016.43
2023-09-10 15:24:00,SystemResetWarning,0837.0,5.02,000.00,029.2,027.0,000.0,037.3,030.2,34.2,-001.2,0035.40,0019.22,0016.46
2023-09-10 15:25:00,SystemResetWarning,0836.9,4.99,000.00,029.3,027.2,000.0,037.3,030.3,34.1,-001.2,0034.29,0019.22,0016.52
2023-09-10 15:26:00,SystemResetWarning,0836.9,5.00,000.00,029.3,027.3,000.0,037.3,030.3,34.0,-001.2,0033.99,0019.16,0016.56
2023-09-10 15:27:00,SystemResetWarning,0836.9,4.99,000.00,029.3,027.4,000.0,037.4,030.3,33.9,-001.2,0034.95,0019.13,0016.58
2023-09-10 15:28:00,SystemResetWarning,0837.0,5.00,000.00,029.3,027.4,000.0,037.4,030.4,33.8,-001.3,0036.08,0019.08,0016.54
2023-09-10 15:29:00,SystemResetWarning,0837.0,5.01,000.00,029.3,027.5,000.0,037.4,030.4,33.8,-001.3,0036.14,0018.92,0016.47
2023-09-10 15:30:00,SystemResetWarning,0837.0,5.01,000.00,029.3,027.6,000.0,037.4,030.5,33.6,-001.2,0035.60,0018.76,0016.36
2023-09-10 15:31:00,SystemResetWarning,0837.0,4.99,000.00,029.4,027.6,000.0,037.5,030.6,33.7,-001.1,0034.94,0018.54,0016.24
2023-09-10 15:32:00,SystemResetWarning,0836.9,5.00,000.00,029.4,027.7,000.0,037.5,030.6,33.7,-001.1,0034.10,0018.51,0016.19
2023-09-10 15:33:00,SystemResetWarning,0836.9,5.00,000.00,029.4,027.7,000.0,037.5,030.6,33.7,-001.1,0035.16,0018.52,0016.11
2023-09-10 15:34:00,SystemResetWarning,0836.9,5.00,000.00,029.4,027.8,000.0,037.5,030.7,33.5,-001.1,0035.98,0018.46,0016.01
2023-09-10 15:35:00,SystemResetWarning,0836.9,4.99,000.00,029.4,027.8,000.0,037.5,030.7,33.5,-001.1,0036.39,0018.29,0015.90
2023-09-10 15:36:00,SystemResetWarning,0836.9,5.00,000.00,029.4,027.8,000.0,037.6,030.7,33.4,-001.1,0036.01,0018.15,0015.76
2023-09-10 15:37:00,SystemResetWarning,0837.0,5.00,000.00,029.5,027.9,000.0,037.6,030.8,33.4,-001.2,0035.56,0017.93,0015.59
2023-09-10 15:38:00,SystemResetWarning,0837.0,5.00,000.00,029.5,027.7,000.0,037.6,030.8,33.4,-001.4,0033.82,0017.73,0015.42
2023-09-10 15:39:00,SystemResetWarning,0837.0,5.00,000.00,029.5,026.2,000.0,037.5,030.5,33.3,-001.3,0032.23,0017.53,0015.31
2023-09-10 15:40:00,SystemResetWarning,0837.0,5.00,000.00,029.3,024.7,000.0,037.4,030.1,33.4,-001.3,0032.14,0017.47,0015.24
2023-09-10 15:41:00,SystemResetWarning,0837.0,5.01,000.00,029.2,024.2,000.0,037.3,029.9,33.7,-001.2,0032.31,0017.48,0015.23
2023-09-10 15:42:00,SystemResetWarning,0837.0,5.01,000.00,029.1,024.3,000.0,037.3,029.8,34.1,-001.2,0032.44,0017.57,0015.23
2023-09-10 15:43:00,SystemResetWarning,0837.0,5.00,000.00,028.9,024.7,000.0,037.3,029.7,34.3,-001.1,0032.47,0017.54,0015.20
2023-09-10 15:44:00,SystemResetWarning,0836.9,5.00,000.00,028.9,025.1,000.0,037.3,029.8,34.5,-001.1,0031.55,0017.44,0015.18
2023-09-10 15:45:00,SystemResetWarning,0837.0,5.00,000.00,028.8,025.6,000.0,037.3,029.8,34.7,-001.2,0030.77,0017.37,0015.15
2023-09-10 15:46:00,SystemResetWarning,0836.9,5.01,000.00,028.8,025.9,000.0,037.3,029.9,34.8,-001.2,0030.81,0017.40,0015.15
2023-09-10 15:47:00,SystemResetWarning,0836.9,5.00,000.00,028.8,026.2,000.0,037.2,029.9,34.8,-001.2,0031.23,0017.33,0015.12
2023-09-10 15:48:00,SystemResetWarning,0836.8,4.99,000.00,028.8,026.5,000.0,037.2,030.0,34.8,-001.3,0031.94,0017.36,0015.10
2023-09-10 15:49:00,SystemResetWarning,0836.9,4.99,000.00,028.8,026.7,000.0,037.2,030.1,34.7,-001.1,0032.41,0017.43,0015.13
2023-09-10 15:50:00,SystemResetWarning,0836.9,5.01,000.00,028.8,026.9,000.0,037.2,030.1,34.8,-001.1,0033.66,0017.48,0015.15
2023-09-10 15:51:00,SystemResetWarning,0837.0,5.01,000.00,028.8,027.0,000.0,037.2,030.1,34.8,-001.2,0033.42,0017.48,0015.13
2023-09-10 15:52:00,SystemResetWarning,0837.0,5.00,000.00,028.8,027.1,000.0,037.2,030.2,34.7,-001.3,0033.06,0017.40,0015.05
2023-09-10 15:53:00,SystemResetWarning,0836.9,4.99,000.00,028.8,027.3,000.0,037.2,030.2,34.8,-001.3,0032.33,0017.27,0014.95
2023-09-10 15:54:00,SystemResetWarning,0836.8,4.98,000.00,028.9,027.4,000.0,037.2,030.3,35.0,-001.4,0031.91,0017.20,0014.89
2023-09-10 15:55:00,SystemResetWarning,0836.9,5.03,000.00,029.0,027.4,000.0,037.2,030.4,34.7,-001.4,0031.75,0017.18,0014.83
2023-09-10 15:56:00,SystemResetWarning,0836.9,4.98,000.00,029.1,027.5,000.0,037.2,030.5,34.3,-001.3,0031.39,0017.16,0014.79
2023-09-10 15:57:00,SystemResetWarning,0836.9,5.02,000.00,029.2,027.6,000.0,037.2,030.5,34.1,-001.4,0031.40,0017.12,0014.75
2023-09-10 15:58:00,SystemResetWarning,0837.0,5.00,000.00,029.3,027.6,000.0,037.3,030.6,33.9,-001.4,0031.30,0017.16,0014.74
2023-09-10 15:59:00,SystemResetWarning,0837.0,4.99,000.00,029.3,027.7,000.0,037.3,030.6,33.8,-001.3,0030.82,0017.09,0014.69
